Regional Weather Roundup
Issued by NWS

Home | Current Version | Previous Version | Graphics & Text | Print | Product List | Glossary Off
Versions: 1 2 3 4 5 6 7 8 9 10 11 12 13 14 15 16 17 18 19 20 21 22 23 24 25 26 27 28 29 30 31 32 33 34 35 36 37 38 39 40 41 42 43 44 45 46 47 48 49 50

000
ASUS43 KMPX 230301
RWRMN
WEATHER ROUNDUP FOR MINNESOTA
NATIONAL WEATHER SERVICE TWIN CITIES/CHANHASSEN MN
900 PM CST SAT NOV 22 2014


NOTE: "FAIR" INDICATES FEW OR NO CLOUDS BELOW 12,000 FEET WITH NO
SIGNIFICANT WEATHER AND/OR OBSTRUCTIONS TO VISIBILITY. N/A MEANS
CURRENT SKY AND/OR WEATHER CONDITIONS ARE NOT AVAILABLE.

MNZ060>063-068>070-230400-
   Twin Cities Metro

CITY           SKY/WX    TMP DP  RH WIND       PRES   REMARKS
TWIN CITIES    CLOUDY    36  36 100 SE6       29.58F FOG
ST PAUL        FOG       36  36 100 SE8       29.60S VSB 1
CRYSTAL        CLOUDY    37  36  96 SE8       29.55F FOG
BLAINE         FOG       37  37 100 SE9       29.58S VSB 1
LAKEVILLE      FOG       36  36 100 SE3       29.57S VSB 3/4
EDEN PRAIRIE   CLOUDY    37  36  96 SE8       29.55F FOG
SOUTH ST PAUL  FOG       37  36  96 CALM      29.58S VSB 1/2
LAKE ELMO      FOG       37  36  93 SE5       29.60S VSB 1/2
$$
MNZ001>005-007-008-013>017-022>024-027-028-230400-
   Northwest Minnesota

CITY           SKY/WX    TMP DP  RH WIND       PRES   REMARKS
BEMIDJI        CLOUDY    33  29  86 SE15      29.43F WCI  23
HALLOCK        CLOUDY    36  30  80 SE7       29.36R
ROSEAU         CLOUDY    37  32  81 E9        29.38F
WARROAD        CLOUDY    36  30  80 E6        29.41F
THIEF RVR FALL MOCLDY    37  30  75 SE12      29.38F
CROOKSTON      MOCLDY    36  30  80 S16G22    29.40S
FOSSTON        CLOUDY    34  28  80 S10       29.40F WCI  26
DETROIT LAKES  CLOUDY    32  32 100 SE16      29.41F FOG     WCI  21
MOORHEAD       CLOUDY    36  36 100 S16       29.40F FOG
PARK RAPIDS    CLOUDY    31  30  96 SE15      29.46S FOG     WCI  20
MAHNOMEN       MOCLDY    32  29  89 S12G18    29.42R WCI  23
$$
MNZ006-009>011-018-025>026-230400-
   North Central Minnesota

CITY           SKY/WX    TMP DP  RH WIND       PRES   REMARKS
BAUDETTE       CLOUDY    35  30  82 E9        29.43F WCI  28
FLAG ISLAND    CLOUDY    34  30  86 E12G17    29.42F WCI  25
INTL FALLS     CLOUDY    33  30  88 SE9       29.49F WCI  25
WASKISH        MOCLDY    37  30  75 CALM      29.43F
BIG FORK       MOCLDY    34  28  80 SE6       29.49F FOG     WCI  29
LONGVILLE      CLOUDY    32  30  93 SE12G18   29.47F FOG     WCI  23
GRAND RAPIDS   CLOUDY    32  28  86 SE9       29.50F WCI  24
CRANE LAKE     CLOUDY    30  28  93 CALM      29.56F FOG
ORR            MOCLDY    30  27  86 SE5       29.51F WCI  25
COOK             N/A     30  28  93 SE3       29.54F FOG
WALKER         CLOUDY    32  29  90 SE6       29.46F FOG     WCI  26
$$
MNZ012-019>021-037-230400-
   Northeast Minnesota

CITY           SKY/WX    TMP DP  RH WIND       PRES   REMARKS
DULUTH         CLOUDY    33  30  88 SE13      29.57F FOG     WCI  24
ELY            CLOUDY    30  30 100 SE5       29.56F FOG     WCI  25
HIBBING        CLOUDY    34  30  85 SE9       29.54F FOG     WCI  27
EVELETH        CLOUDY    32  32 100 SE7       29.56F FOG     WCI  26
DULUTH HARBOR  CLOUDY    36  32  87 CALM      29.62F
TWO HARBORS    CLOUDY    37  32  81 S5        29.60R
SILVER BAY     MOCLDY    36  32  87 S3        29.60S FOG
GRAND MARAIS     N/A     35  31  85 CALM      29.65S
G MARAIS ARPRT CLOUDY    30  28  93 S3        29.60F VSB 3/4
$$
MNZ029>031-032-039>041-046>048-054>057-064-230400-
   West Central Minnesota

CITY           SKY/WX    TMP DP  RH WIND       PRES   REMARKS
FERGUS FALLS   CLOUDY    34  34 100 SE13      29.44F FOG     WCI  25
WHEATON        FOG       30  30 100 SE16G24   29.42F VSB 3/4 WCI  19
MORRIS         FOG       34  34 100 SE17      29.42S VSB 1/4 WCI  23
ALEXANDRIA     FOG       33  33 100 SE13      29.46F VSB 1/2 WCI  24
ELBOW LAKE       N/A     33  33 100 SE16      29.42F FOG     WCI  22
WADENA         CLOUDY    30  30 100 SE14      29.44F FOG     WCI  20
GLENWOOD       FOG       34  34 100 SE13      29.47F VSB 1/2 WCI  25
APPLETON       MOCLDY    36  34  93 SE10      29.43F FOG
BENSON         CLOUDY    34  34 100 S17       29.44F FOG     WCI  23
ORTONVILLE     MOCLDY    34  30  86 SE13      29.41F FOG     WCI  25
MADISON        CLOUDY    37  36  93 SE9       29.42F
WILLMAR        FOG       36  34  93 SE15      29.48F VSB 1/2
$$
MNZ033>034-036-042>043-049>051-058-059-230400-
   Central Minnesota

CITY           SKY/WX    TMP DP  RH WIND       PRES   REMARKS
ST CLOUD       FOG       35  33  92 SE9       29.52F VSB 1/2 WCI  28
SAUK CENTRE    FOG       32  32 100 SE13      29.48F VSB 1/2 WCI  23
PAYNESVILLE    FOG       32  32 100 E9        29.49F VSB 1/2 WCI  24
AITKIN         HAZE      36  30  80 SE9       29.51F VSB 1
PINE RIVER     CLOUDY    32  32 100 SE10      29.52F FOG     WCI  24
BRAINERD       FOG       31  31 100 SE9       29.51F VSB 1   WCI  23
STAPLES        CLOUDY    30  30 100 SE8       29.48F FOG     WCI  23
LONG PRAIRIE   FOG       32  32 100 SE10      29.48F VSB 1/2 WCI  24
LITTLE FALLS   FOG       32  32 100 SE10      29.50F VSB 3/4 WCI  24
LITCHFIELD     CLOUDY    37  37 100 SE6       29.51F FOG
BUFFALO        CLOUDY    36  34  95 SE5       29.54F FOG
MAPLE LAKE     FOG       36  36  99 SE5       29.54F VSB 3/4
$$
MNZ037-044-045-052-053-230400-
   East Central Minnesota

CITY           SKY/WX    TMP DP  RH WIND       PRES   REMARKS
PRINCETON      CLOUDY    36  34  93 SE6       29.55F FOG
MORA           CLOUDY    32  32 100 SE7       29.58F FOG     WCI  26
CAMBRIDGE      CLOUDY    37  30  75 SE5       29.54F HAZE
RUSH CITY      CLOUDY    34  33  96 SE6       29.58F WCI  29
MOOSE LAKE     CLOUDY    32  32 100 S5        29.56F FOG     WCI  27
HINCKLEY       CLOUDY    34  34 100 SE6       29.59S FOG     WCI  29
CLOQUET        CLOUDY    34  30  86 SE6       29.57F FOG     WCI  29
MCGREGOR       CLOUDY    32  32 100 SE10      29.55F WCI  24
$$
MNZ071>073-080-081-089-090-097-098-230400-
   Southwest Minnesota

CITY           SKY/WX    TMP DP  RH WIND       PRES   REMARKS
MONTEVIDEO     MOCLDY    34  34 100 S7        29.45F FOG     WCI  28
GRANITE FALLS  PTCLDY    35  33  93 SE9       29.47F FOG     WCI  27
CANBY          CLOUDY    41  35  79 SW18G29   29.41F
MARSHALL       MOCLDY    41  36  81 SW24G31   29.43S
REDWOOD FALLS  PTCLDY    34  33  96 SE12      29.47S FOG     WCI  25
OLIVIA         PTCLDY    34  32  93 SE8       29.47S FOG     WCI  27
PIPESTONE      CLOUDY    39  37  93 SW18G24   29.45S
WINDOM         MOCLDY    41  39  93 S14G21    29.49F FOG
WORTHINGTON    CLOUDY    39  39 100 S20G25    29.50S
JACKSON        CLOUDY    43  41  93 S17G24    29.52S FOG
TRACY          MOCLDY    41  38  87 S18G26    29.45S
SLAYTON        MOCLDY    39  37  95 S21       29.47S
$$
MNZ065>067-074>077-082>085-091>093-230400-
   South Central Minnesota

CITY           SKY/WX    TMP DP  RH WIND       PRES   REMARKS
MANKATO        CLOUDY    39  37  93 S9G16     29.54F
NEW ULM        PTCLDY    36  36 100 SE10      29.49F FOG
ST JAMES       MOCLDY    45  41  87 S22G28    29.50F FOG
FAIRMONT       CLOUDY    46  43  87 S21G26    29.53S
GLENCOE        CLOUDY    37  37  99 SE8       29.51F FOG
FARIBAULT      MOCLDY    41  39  93 S10       29.57S FOG
OWATONNA       CLOUDY    43  39  87 S12       29.57S FOG
WASECA         CLOUDY    41  37  87 S13       29.57F
ALBERT LEA     CLOUDY    45  45 100 S9        29.58S FOG
$$
MNZ078>079-086>088-094>096-230400-
   Southeast Minnesota

CITY           SKY/WX    TMP DP  RH WIND       PRES   REMARKS
ROCHESTER      CLOUDY    42  41  96 S16       29.61F FOG
RED WING       FOG       37  37 100 SE10      29.60F VSB 1/2
STANTON        CLOUDY    40  38  93 S6        29.57S FOG
DODGE CENTER   CLOUDY    43  43 100 S20       29.58F FOG
WINONA         FOG       37  37 100 CALM      29.65F VSB 1/2
AUSTIN         CLOUDY    43  43 100 S9        29.60S FOG
PRESTON        FOG       43  42  97 S18       29.63F VSB 1/2
$$
ABBREVIATIONS USED IN REMARKS
   TC - TEMPERATURES IN CELSIUS
  WCI - WIND CHILL INDEX
   HX - HEAT INDEX
  VSB - VISIBILITY
$$


USA.gov is the U.S. government's official web portal to all federal, state and local government web resources and services.